Dewpoint
-22 -21 -19 -17 -16 -16 -17 -17 -12 -9 -10 -11 -10 -10 -9 -9 -9 -9 -9 -10 -8 -8 -7 -8 -7 -6 -6 -6 -6 -5 -4 -4 -4 -3 -3 -3 -3 -2
-22 -20 -17 -15 -15 -15 -15 -16 -14 -11 -8 -11 -10 -10 -9 -9 -9 -9 -10 -8 -9 -8 -8 -8 -9 -9 -8 -8 -7 -7 -6 -5 -4 -4 -4 -4 -3 -3
-21 -16 -15 -14 -13 -13 -13 -14 -12 -10 -9 -11 -11 -11 -11 -12 -11 -9 -8 -8 -8 -8 -8 -10 -10 -9 -9 -9 -7 -6 -6 -7 -6 -5 -5 -5 -5 -5
-17 -14 -13 -13 -12 -11 -12 -10 -10 -10 -9 -9 -10 -12 -12 -11 -10 -8 -8 -8 -10 -11 -11 -11 -10 -9 -8 -7 -8 -8 -7 -7 -7 -8 -8 -7 -5 -5
-14 -13 -12 -11 -11 -10 -10 -9 -9 -8 -8 -8 -9 -10 -9 -8 -8 -8 -11 -12 -12 -12 -11 -10 -10 -9 -9 -9 -8 -7 -7 -7 -7 -6 -6 -6 -6 -6
-13 -12 -11 -11 -10 -9 -9 -9 -8 -9 -9 -9 -8 -8 -8 -8 -10 -11 -12 -12 -11 -11 -10 -10 -10 -10 -10 -9 -9 -9 -9 -9 -9 -8 -8 -8 -8 -7
-12 -12 -12 -12 -11 -9 -9 -9 -10 -9 -8 -8 -8 -8 -10 -11 -12 -12 -11 -10 -10 -10 -11 -11 -11 -11 -11 -11 -11 -10 -9 -9 -8 -8 -8 -7 -7 -7
-14 -15 -14 -13 -11 -10 -10 -9 -9 -9 -8 -8 -10 -10 -12 -12 -11 -10 -9 -10 -11 -11 -11 -12 -11 -11 -13 -12 -13 -9 -9 -8 -8 -8 -7 -7 -7 -6
-14 -13 -12 -11 -11 -11 -11 -9 -8 -9 -9 -10 -11 -11 -10 -10 -10 -10 -10 -10 -10 -11 -11 -11 -12 -12 -13 -13 -12 -11 -9 -9 -8 -8 -8 -7 -7 -7
-12 -11 -9 -10 -10 -10 -9 -8 -11 -12 -13 -12 -10 -10 -10 -10 -10 -10 -10 -10 -11 -11 -11 -11 -12 -12 -12 -12 -13 -13 -11 -9 -8 -8 -7 -7 -7 -7
-11 -9 -10 -10 -10 -9 -9 -10 -10 -13 -13 -11 -10 -10 -12 -11 -11 -11 -11 -11 -11 -11 -12 -11 -12 -11 -11 -12 -12 -11 -9 -9 -8 -8 -7 -7 -7 -6
-9 -10 -9 -10 -9 -9 -10 -10 -11 -13 -10 -10 -13 -14 -13 -12 -11 -11 -11 -12 -12 -12 -12 -11 -11 -11 -11 -11 -11 -11 -10 -10 -9 -8 -8 -8 -7 -7
-10 -10 -12 -10 -9 -10 -10 -11 -11 -10 -11 -12 -13 -13 -12 -12 -11 -11 -11 -11 -12 -11 -12 -11 -11 -11 -11 -10 -10 -11 -9 -8 -7 -7 -6 -6 -6 -7
-10 -11 -11 -10 -11 -11 -12 -11 -10 -11 -13 -13 -12 -12 -12 -11 -11 -11 -11 -10 -10 -10 -10 -9 -10 -10 -10 -10 -10 -10 -8 -7 -6 -5 -5 -5 -5 -6
-10 -10 -10 -11 -14 -16 -14 -11 -12 -13 -12 -12 -12 -12 -11 -11 -11 -11 -10 -10 -10 -10 -9 -9 -9 -9 -9 -10 -9 -8 -8 -7 -5 -5 -5 -4 -4 -5
-10 -11 -13 -15 -16 -15 -13 -13 -13 -12 -12 -12 -12 -11 -10 -11 -10 -10 -10 -10 -10 -10 -10 -9 -9 -8 -8 -7 -7 -7 -6 -8 -5 -4 -5 -4 -4 -2
-11 -13 -15 -15 -16 -14 -13 -12 -12 -12 -12 -11 -11 -11 -10 -10 -10 -10 -10 -10 -10 -9 -9 -9 -8 -7 -6 -6 -6 -6 -5 -5 -4 -5 -5 -5 -3 -3
-12 -15 -15 -15 -14 -13 -12 -12 -12 -12 -11 -11 -11 -10 -10 -10 -9 -9 -9 -9 -9 -9 -9 -8 -8 -8 -7 -6 -6 -6 -5 -4 -4 -5 -5 -5 -4 -1
-15 -14 -14 -15 -13 -12 -12 -12 -12 -11 -11 -11 -10 -10 -10 -9 -9 -9 -9 -9 -9 -9 -9 -8 -8 -7 -8 -7 -5 -5 -5 -5 -4 -4 -5 -5 -5 -2
-14 -14 -14 -14 -12 -12 -12 -11 -11 -11 -10 -10 -9 -9 -9 -9 -9 -8 -8 -8 -9 -9 -9 -8 -8 -7 -7 -7 -7 -5 -5 -5 -4 -3 -4 -5 -5 -3
-14 -14 -14 -13 -12 -11 -11 -11 -10 -10 -10 -9 -9 -8 -8 -9 -9 -8 -8 -8 -8 -8 -9 -10 -7 -7 -6 -6 -6 -5 -5 -5 -5 -4 -4 -5 -5 -5
-14 -14 -14 -12 -11 -11 -11 -10 -10 -9 -9 -8 -8 -8 -8 -8 -8 -8 -8 -8 -7 -8 -10 -11 -7 -6 -6 -6 -6 -6 -5 -5 -5 -5 -5 -5 -5 -5
-14 -14 -13 -11 -11 -10 -10 -10 -9 -8 -8 -8 -8 -8 -8 -8 -8 -8 -8 -7 -7 -8 -9 -12 -9 -7 -7 -6 -7 -6 -5 -5 -5 -5 -5 -5 -5 -5
Wind_Speed
24 23 26 26 27 29 29 27 28 33 44 31 28 38 34 35 34 35 37 36 34 35 36 40 41 41 40 41 43 44 43 44 44 43 43 42 42 44
25 27 27 28 30 31 30 29 27 30 39 46 45 43 40 38 39 36 39 35 37 34 35 37 44 45 48 48 47 47 47 46 43 43 43 43 43 44
26 26 28 29 32 32 32 31 30 30 37 51 47 48 49 49 45 43 40 38 38 31 41 47 46 42 41 41 42 42 42 45 47 46 47 48 47 47
27 28 29 31 32 33 35 33 33 33 35 40 48 55 49 49 49 45 39 27 42 39 41 39 39 39 40 38 40 42 42 44 45 46 47 47 47 47
28 29 30 30 33 35 34 35 35 34 34 38 47 51 49 45 44 42 43 43 40 38 38 37 35 35 38 43 41 42 42 42 42 42 41 41 42 43
28 28 30 31 33 32 33 33 34 39 41 44 45 44 42 37 40 43 48 41 43 43 38 33 42 43 40 39 40 40 41 42 42 43 43 44 45 45
30 31 31 30 27 26 29 36 37 38 42 42 44 36 41 41 42 44 45 46 42 40 44 43 39 40 44 43 40 38 38 37 38 39 40 41 42 42
31 31 29 28 28 30 31 31 30 35 41 33 46 42 46 44 46 45 41 45 48 41 33 51 46 46 46 43 40 37 38 39 40 40 41 41 42 43
29 30 29 29 33 33 36 34 36 30 33 36 42 41 42 45 42 46 47 42 45 49 40 46 44 46 45 43 40 38 38 39 39 40 41 41 42 42
29 28 30 33 32 33 37 34 42 43 42 38 34 38 39 42 43 41 43 45 46 45 34 40 45 47 46 45 43 39 35 34 34 36 37 39 40 40
31 31 30 30 35 33 34 41 40 44 33 35 31 37 38 32 30 34 39 40 43 43 43 38 42 43 49 47 35 34 33 33 35 36 38 40 40 41
34 34 32 33 32 31 36 37 40 35 39 38 42 34 31 31 31 30 34 38 40 45 38 37 43 39 34 37 34 43 40 39 34 35 36 39 41 42
37 38 39 33 32 34 31 32 29 34 37 36 33 35 35 36 34 33 32 32 38 41 40 34 39 39 32 42 43 45 37 39 39 34 28 29 31 37
34 38 35 34 33 31 27 25 28 29 31 32 36 37 37 37 36 34 32 32 31 34 33 28 33 35 39 42 43 44 42 39 32 31 32 33 31 29
32 33 33 33 31 28 24 26 26 30 31 34 36 35 36 37 37 36 33 33 33 31 29 27 28 30 31 36 40 40 42 38 29 34 33 29 27 21
33 35 33 29 26 24 26 29 30 30 27 31 33 34 35 37 36 35 37 36 37 35 31 30 26 25 28 26 28 34 33 30 37 32 28 29 21 2
30 31 30 29 29 28 29 32 32 32 32 32 32 34 36 37 37 34 35 35 34 36 37 34 26 23 17 18 27 34 34 34 31 34 30 32 27 12
27 28 29 29 29 30 33 35 34 33 32 32 31 33 36 37 36 35 33 34 33 34 33 31 30 29 28 23 29 38 37 36 31 34 37 29 35 13
26 28 28 29 29 30 33 35 35 33 32 31 31 33 34 34 34 35 34 33 33 33 29 27 28 28 30 25 29 33 43 38 32 34 37 38 34 31
26 28 29 29 29 32 34 34 34 34 32 31 31 30 33 34 33 33 32 31 31 30 27 25 25 25 24 18 18 32 37 42 43 35 34 37 38 31
28 28 28 28 29 33 33 33 33 33 31 30 28 31 33 33 31 30 29 27 27 27 25 24 22 17 13 15 22 26 30 33 36 41 38 33 40 47
28 28 27 27 30 33 32 32 33 31 29 30 31 32 31 30 28 28 25 28 25 22 18 17 17 16 14 17 19 20 26 31 35 36 41 46 36 37
28 28 27 28 31 32 32 31 30 30 30 31 30 30 29 27 24 24 22 25 22 19 15 15 15 15 13 15 15 18 24 28 34 37 39 42 44 44
Wind_Direction
319 319 317 318 318 321 321 319 314 308 309 311 309 311 310 309 307 304 299 299 297 294 292 291 292 289 285 285 286 280 278 274 272 269 267 266 265 263
320 318 317 319 321 322 324 321 313 306 300 305 310 313 313 308 306 304 306 297 296 291 291 293 292 287 284 284 281 277 274 275 274 271 271 270 269 266
318 316 318 321 320 322 322 320 314 313 303 306 312 315 312 313 313 308 303 297 286 292 295 294 292 287 285 282 281 278 279 274 274 272 270 269 269 268
320 318 319 320 319 320 322 320 318 315 308 299 308 310 312 317 312 310 305 292 311 298 296 295 292 287 284 287 285 280 278 275 272 270 268 264 263 263
319 318 319 320 318 319 322 319 318 312 305 301 300 308 309 310 308 306 310 305 302 302 299 294 291 289 288 289 285 283 280 276 274 274 273 271 267 264
316 316 316 315 316 321 317 314 309 311 307 306 302 301 302 307 312 309 308 309 307 310 302 291 294 293 289 287 285 283 279 277 274 271 268 266 263 261
316 317 318 319 315 314 314 310 310 307 307 306 299 305 314 313 312 312 306 308 308 304 298 301 300 296 293 295 292 288 282 279 275 272 269 266 263 261
323 326 326 325 327 318 315 313 310 308 302 312 313 310 313 311 313 308 306 307 304 308 303 301 303 301 305 305 302 288 286 282 278 274 271 267 264 263
330 330 327 327 326 324 325 313 313 313 312 311 310 309 306 310 312 308 307 303 299 302 304 298 308 304 311 309 303 296 290 284 279 275 272 268 263 259
332 329 326 326 326 323 316 318 317 314 315 314 308 307 308 307 306 302 303 304 302 304 305 295 309 309 315 312 310 306 296 290 284 278 273 268 265 262
329 328 327 323 324 320 319 319 317 314 321 321 310 307 309 309 308 309 307 309 305 307 313 305 310 305 312 312 309 308 298 292 287 279 272 268 265 262
326 330 324 324 322 322 319 318 313 323 327 316 315 317 323 329 325 320 318 310 306 307 313 308 310 311 309 307 308 312 313 315 304 291 280 268 263 259
322 322 326 326 323 320 320 311 320 320 313 315 325 332 334 332 331 330 327 322 314 306 321 312 308 315 305 306 311 317 319 320 315 308 299 289 275 256
318 323 327 323 320 320 320 324 321 317 323 333 332 329 333 334 333 333 333 332 328 321 329 329 314 315 312 305 305 322 327 327 325 322 322 316 304 277
320 323 316 322 323 326 331 327 329 338 336 330 327 332 334 335 336 339 338 339 336 341 343 342 331 325 318 308 307 322 330 339 344 342 339 333 325 293
326 317 321 325 330 334 336 342 344 340 329 330 333 334 337 340 341 344 341 345 342 346 353 352 343 336 325 322 322 333 351 327 352 358 355 4 8 311
320 320 330 337 339 340 341 344 345 343 341 339 336 337 341 343 344 348 348 346 346 346 349 355 355 355 354 357 357 1 358 358 10 13 9 9 30 39
324 331 337 338 338 340 341 342 343 343 341 339 338 341 342 344 345 349 350 350 348 350 351 354 358 2 13 22 17 5 11 10 22 28 22 11 23 52
336 337 337 338 338 340 341 340 339 341 340 339 340 343 343 345 347 349 350 350 349 350 351 359 2 3 354 346 21 32 19 17 28 34 29 30 28 39
340 338 337 337 339 339 339 339 338 339 340 342 341 343 347 346 346 347 348 349 346 346 350 360 5 4 352 344 345 32 41 33 31 30 34 34 42 64
339 337 337 338 339 339 339 338 336 338 340 339 342 343 345 346 344 345 344 349 345 348 351 354 1 4 19 46 39 38 45 45 41 38 42 44 38 54
337 335 337 338 340 340 339 337 337 341 342 342 340 341 344 346 345 344 344 346 346 348 351 355 4 14 32 44 41 43 47 55 56 58 63 62 57 56
336 335 337 340 342 340 338 337 339 340 340 338 339 341 344 344 346 347 346 346 348 350 352 5 12 20 35 51 46 46 55 61 63 60 62 72 76 79
Height
1452 1449 1445 1441 1437 1433 1429 1424 1418 1401 1386 1388 1387 1385 1381 1378 1374 1370 1366 1361 1358 1355 1351 1347 1342 1337 1333 1328 1326 1322 1319 1317 1315 1315 1314 1313 1314 1314
1447 1443 1439 1435 1430 1426 1422 1418 1415 1408 1390 1384 1378 1376 1373 1368 1364 1361 1356 1352 1349 1345 1341 1337 1333 1327 1322 1317 1312 1309 1306 1304 1302 1301 1300 1300 1300 1301
1442 1437 1433 1429 1424 1420 1416 1411 1407 1403 1392 1373 1373 1367 1361 1356 1353 1349 1345 1341 1335 1333 1330 1324 1318 1313 1308 1304 1299 1296 1292 1290 1288 1287 1286 1286 1286 1286
1436 1432 1428 1423 1418 1413 1409 1404 1399 1395 1389 1376 1366 1359 1355 1349 1343 1338 1334 1330 1327 1322 1315 1310 1305 1300 1295 1291 1287 1283 1280 1277 1275 1274 1272 1273 1271 1271
1431 1426 1421 1417 1411 1406 1402 1397 1391 1386 1381 1374 1361 1354 1347 1342 1334 1329 1325 1320 1315 1310 1304 1298 1293 1289 1284 1279 1274 1270 1267 1264 1262 1259 1258 1257 1257 1257
1426 1421 1416 1411 1406 1400 1396 1391 1385 1379 1372 1365 1355 1346 1342 1336 1330 1321 1310 1309 1302 1297 1291 1286 1282 1276 1271 1266 1261 1256 1253 1250 1247 1245 1244 1243 1242 1242
1419 1415 1409 1405 1401 1397 1392 1385 1379 1372 1364 1357 1347 1341 1335 1328 1322 1314 1305 1296 1291 1286 1280 1274 1268 1263 1257 1251 1246 1241 1237 1235 1232 1230 1228 1228 1227 1227
1411 1407 1402 1398 1394 1390 1384 1379 1374 1367 1359 1350 1344 1336 1327 1322 1314 1307 1299 1291 1274 1279 1272 1258 1259 1250 1243 1238 1232 1229 1226 1222 1218 1216 1214 1213 1213 1213
1407 1401 1396 1393 1388 1381 1375 1370 1364 1359 1355 1348 1338 1330 1322 1315 1308 1299 1292 1285 1274 1265 1264 1249 1247 1238 1232 1225 1221 1216 1212 1208 1204 1201 1199 1198 1197 1197
1402 1398 1392 1386 1382 1377 1369 1362 1356 1351 1346 1339 1333 1324 1318 1310 1304 1294 1285 1275 1265 1259 1257 1243 1237 1227 1221 1213 1208 1202 1197 1194 1190 1187 1184 1182 1181 1181
1396 1392 1387 1382 1376 1371 1364 1355 1348 1342 1337 1331 1325 1319 1310 1303 1296 1287 1278 1270 1256 1249 1246 1239 1227 1219 1210 1199 1194 1191 1186 1183 1178 1173 1170 1167 1166 1166
1391 1386 1382 1378 1371 1365 1358 1350 1341 1335 1328 1321 1315 1308 1302 1294 1288 1283 1274 1265 1256 1241 1239 1234 1222 1216 1198 1192 1187 1179 1173 1167 1162 1157 1152 1149 1148 1148
1385 1379 1375 1370 1365 1359 1353 1345 1338 1332 1323 1317 1308 1301 1294 1287 1281 1275 1268 1261 1251 1241 1233 1228 1217 1211 1206 1187 1176 1171 1166 1156 1149 1140 1134 1130 1127 1127
1381 1375 1369 1364 1358 1351 1345 1340 1335 1327 1318 1311 1304 1296 1289 1281 1274 1268 1261 1254 1247 1238 1228 1223 1214 1207 1198 1187 1175 1162 1157 1147 1138 1129 1121 1114 1108 1106
1379 1372 1365 1358 1351 1345 1339 1335 1329 1320 1314 1308 1301 1293 1286 1277 1269 1261 1254 1247 1239 1232 1225 1217 1210 1202 1196 1186 1174 1162 1150 1138 1133 1122 1113 1104 1095 1088
1374 1366 1360 1353 1347 1341 1335 1329 1323 1317 1312 1305 1297 1289 1281 1273 1264 1257 1249 1241 1233 1224 1220 1214 1207 1199 1189 1182 1174 1162 1151 1142 1129 1121 1110 1099 1087 1078
1368 1360 1354 1347 1341 1336 1330 1325 1319 1313 1307 1301 1294 1286 1277 1269 1261 1255 1247 1240 1233 1224 1215 1208 1204 1197 1189 1181 1172 1162 1151 1142 1133 1122 1110 1100 1091 1085
1362 1356 1349 1344 1338 1332 1326 1320 1315 1309 1304 1297 1290 1283 1275 1267 1259 1252 1246 1239 1232 1225 1217 1211 1203 1195 1188 1182 1174 1164 1155 1146 1136 1125 1115 1104 1094 1089
1359 1353 1347 1341 1335 1330 1324 1318 1311 1306 1300 1294 1287 1280 1273 1266 1259 1251 1245 1239 1232 1226 1220 1213 1207 1200 1193 1187 1179 1173 1162 1151 1142 1131 1122 1113 1104 1096
1355 1349 1344 1338 1333 1327 1321 1315 1308 1302 1296 1290 1284 1278 1272 1265 1258 1251 1245 1239 1233 1227 1221 1215 1210 1204 1199 1194 1187 1178 1170 1161 1150 1140 1130 1124 1116 1107
1351 1346 1341 1336 1330 1324 1318 1312 1306 1299 1293 1288 1282 1276 1270 1264 1257 1252 1245 1240 1235 1229 1223 1218 1213 1209 1204 1198 1192 1186 1179 1171 1163 1152 1142 1131 1126 1118
1349 1343 1338 1333 1327 1321 1314 1308 1302 1296 1290 1285 1279 1273 1268 1262 1256 1251 1245 1239 1235 1230 1225 1222 1217 1212 1207 1202 1199 1194 1187 1181 1174 1166 1158 1150 1145 1140
1345 1340 1335 1329 1324 1317 1311 1305 1299 1293 1287 1282 1276 1271 1265 1260 1256 1251 1246 1241 1235 1231 1227 1223 1220 1216 1212 1208 1205 1200 1195 1189 1183 1177 1172 1167 1162 1157